Track STARLINK-2713 now! 10-day predictions STARLINK-2713 is classified as:
1 48602U 21041BB 22231.18446749 .00003234 00000-0 23593-3 0 9998 2 48602 53.0530 185.8422 0001648 70.2572 289.8595 15.06398438 70954